Wind_Speed
57 58 59 60 61 63 64 66 67 67 66 66 68 69 70 71 72 73 74 76 77 78 79 80 81 82 83 84 84 85 84 84 83 83 83 83 84 84
58 59 60 61 63 64 66 67 69 70 70 70 71 73 74 75 76 77 78 79 80 81 82 82 83 83 83 83 83 82 81 80 80 80 80 80 80 81
59 60 61 63 64 66 67 69 70 72 72 71 73 75 77 79 81 82 83 84 84 83 83 82 81 80 79 77 76 74 73 72 72 72 71 72 72 73
61 62 63 65 66 67 69 70 72 74 76 76 76 78 80 82 83 84 85 85 84 83 81 79 77 74 71 68 66 65 64 63 62 61 61 61 62 63
62 63 65 67 68 70 71 73 75 78 80 81 81 82 83 83 84 84 84 83 81 79 76 73 69 66 63 60 58 57 56 54 53 52 52 52 53 54
64 66 68 70 72 73 75 77 80 82 83 84 84 83 83 82 82 81 79 77 74 72 68 64 61 58 55 53 51 50 48 48 47 47 47 47 47 48
67 69 71 73 75 78 80 82 84 85 86 86 85 83 80 79 77 76 73 69 65 62 58 55 52 50 48 46 45 44 43 42 42 42 42 42 42 42
71 73 75 77 80 82 84 85 87 87 86 85 83 80 76 74 71 68 64 59 54 51 49 46 45 43 42 42 40 39 38 37 37 38 38 38 39 39
75 77 79 81 83 84 85 85 85 84 83 82 79 74 70 66 63 58 54 50 45 42 41 38 38 38 38 38 37 35 34 34 34 34 35 35 36 36
78 81 82 82 83 85 84 83 81 79 77 75 71 66 61 57 54 50 46 42 38 36 36 33 33 33 34 34 34 33 32 31 31 31 32 34 34 35
81 82 82 83 83 83 82 80 76 72 69 65 61 57 53 49 46 43 39 37 33 32 32 30 29 30 30 31 32 32 30 30 30 30 31 32 33 34
81 81 82 82 81 80 78 74 70 65 60 54 50 47 44 41 39 38 36 34 31 29 29 29 28 28 27 28 30 31 29 28 28 28 29 29 30 31
81 81 79 78 76 73 70 66 62 57 51 46 42 40 37 35 34 34 33 32 30 28 27 27 26 26 26 26 28 29 28 27 26 26 26 27 27 27
81 78 75 73 69 65 62 58 54 49 44 40 37 35 33 32 31 31 30 30 29 27 26 26 25 25 25 25 26 27 27 25 25 25 25 25 25 24
77 74 70 66 62 58 55 51 47 43 39 37 34 32 31 30 29 29 29 28 28 27 26 25 24 24 24 24 24 24 23 23 23 22 22 22 22 22
72 68 63 59 56 52 48 44 41 38 36 33 32 30 29 29 28 27 27 26 25 25 24 24 23 23 22 22 22 22 22 21 21 20 20 20 20 20
67 62 57 53 49 45 42 38 36 34 33 31 30 28 27 26 26 25 24 24 23 23 23 23 22 21 21 21 21 21 20 20 19 19 19 19 19 19
61 56 51 48 44 40 36 34 32 32 30 29 28 27 25 24 23 23 22 22 22 21 21 21 20 20 20 20 20 20 20 19 19 19 19 19 18 18
55 50 46 43 39 36 33 31 30 29 28 28 26 25 24 23 22 22 21 21 21 20 20 20 19 19 19 20 20 19 19 19 19 19 18 18 18 18
50 46 43 39 36 33 31 29 28 27 27 26 25 23 22 22 21 21 21 21 20 20 19 19 19 19 19 19 19 19 18 18 19 18 18 18 18 18
45 42 39 36 33 31 30 28 27 26 25 24 23 22 21 21 21 21 21 20 20 20 20 19 19 19 19 19 19 19 18 18 18 19 19 18 18 18
41 38 35 33 31 30 28 26 26 25 24 23 22 22 21 21 20 20 20 20 20 20 20 20 19 19 18 18 19 19 19 19 19 19 19 19 19 19
37 35 32 30 29 27 26 25 24 24 23 22 22 21 21 21 20 20 20 20 20 20 20 19 19 19 19 18 18 19 19 19 19 19 19 20 20 21
Wind_Direction
297 296 295 295 295 294 294 294 293 292 291 291 291 291 291 290 290 289 289 288 288 287 286 285 284 283 282 281 280 279 277 275 273 271 270 268 267 265
298 297 296 296 295 295 295 295 295 295 294 294 294 294 293 293 293 292 291 291 290 289 288 287 286 285 284 283 281 279 277 275 273 271 269 268 266 264
298 298 297 297 297 297 297 297 297 297 296 296 296 296 296 295 295 294 294 293 292 291 290 289 288 286 285 283 281 279 277 275 273 271 269 267 265 263
299 299 299 298 298 298 298 298 298 298 298 297 297 297 296 296 295 295 294 293 293 292 291 289 288 287 285 283 281 279 277 275 273 271 268 266 264 261
300 300 300 300 300 299 299 299 299 299 299 298 298 298 297 296 295 295 294 293 292 291 290 289 287 286 284 282 279 278 276 274 271 269 267 265 263 261
302 302 301 301 301 300 300 300 300 299 299 299 299 298 297 296 295 294 293 292 291 290 289 287 286 284 282 280 278 276 274 272 270 268 266 264 263 261
303 303 302 302 302 301 301 301 300 300 300 300 299 299 298 296 295 293 292 291 290 289 287 286 284 283 281 279 277 275 272 270 268 267 265 263 262 260
304 304 303 303 303 302 302 302 302 302 301 301 300 299 298 296 295 293 292 291 289 287 286 284 283 281 280 279 277 275 272 269 267 266 264 263 261 259
305 304 304 304 303 303 303 302 302 302 302 301 300 299 298 297 295 293 292 291 290 287 284 282 280 279 279 279 277 275 273 271 269 266 264 263 261 259
305 305 305 305 304 304 303 303 303 302 301 300 300 299 297 296 294 293 292 290 289 287 284 282 278 278 278 278 277 276 275 273 270 267 265 263 261 260
306 306 305 305 305 305 304 304 303 302 301 300 299 298 297 295 294 293 291 290 289 287 285 283 279 278 277 276 277 277 277 275 272 269 267 264 262 260
307 306 306 306 306 306 305 305 304 303 301 299 298 297 296 294 293 292 291 290 289 288 285 283 281 279 276 276 276 277 277 276 273 271 268 265 262 259
308 307 307 307 307 306 306 305 305 304 302 300 299 297 295 293 292 292 291 291 290 288 285 283 281 279 278 276 276 277 277 276 273 271 269 266 262 259
309 309 308 308 307 307 306 305 304 303 302 301 300 298 295 293 292 291 290 290 290 288 286 283 281 279 278 277 275 275 275 274 273 271 268 265 262 257
309 309 309 308 308 307 306 305 304 303 302 301 300 298 295 294 292 290 290 290 289 287 285 283 282 280 278 277 275 273 273 273 272 270 267 263 260 255
309 309 309 308 307 306 305 303 302 302 301 300 299 297 295 294 292 290 289 288 288 286 284 283 282 280 278 277 274 272 272 272 269 267 265 261 257 252
309 309 309 308 307 306 304 303 301 300 300 300 299 298 295 293 292 291 290 288 287 285 284 284 282 279 277 276 274 271 269 269 267 264 262 259 255 250
310 310 310 309 308 306 304 301 300 300 300 301 300 298 295 294 292 291 290 289 288 286 284 283 282 280 278 275 273 271 268 267 265 263 261 258 254 249
310 310 310 310 308 306 304 302 300 300 301 301 299 297 295 293 292 291 291 290 288 286 284 282 280 279 279 276 274 271 268 265 262 260 259 256 252 247
309 309 309 309 307 306 303 302 300 300 301 300 299 297 295 293 292 291 291 290 288 286 284 282 280 278 278 275 273 271 268 264 260 258 257 254 250 245
309 308 308 307 306 304 303 301 300 300 300 299 297 296 295 293 291 290 290 289 287 285 284 282 280 277 276 274 271 269 268 264 259 257 254 251 248 244
308 307 306 305 304 303 301 301 300 300 299 298 296 295 293 292 291 290 289 288 287 285 284 282 279 277 275 272 269 268 267 264 260 257 253 249 246 243
307 306 305 304 303 302 301 301 300 298 298 297 295 294 292 291 290 290 289 288 286 284 283 281 279 277 274 271 269 268 266 264 261 258 253 248 244 242
Height
5657 5652 5647 5641 5635 5630 5624 5619 5614 5611 5610 5606 5600 5594 5587 5581 5575 5570 5565 5561 5556 5551 5547 5543 5539 5535 5532 5528 5526 5523 5521 5520 5520 5521 5522 5523 5525 5527
5643 5637 5632 5626 5620 5614 5608 5602 5596 5590 5588 5585 5578 5571 5564 5557 5551 5545 5540 5535 5530 5525 5520 5515 5511 5507 5503 5500 5497 5494 5492 5491 5491 5492 5493 5495 5497 5499
5628 5623 5617 5610 5605 5598 5591 5585 5578 5571 5567 5566 5558 5550 5541 5533 5527 5519 5513 5508 5503 5497 5492 5487 5483 5479 5475 5472 5469 5466 5465 5464 5464 5465 5466 5468 5470 5473
5614 5608 5601 5594 5588 5581 5574 5567 5559 5551 5545 5542 5538 5529 5520 5511 5503 5495 5488 5481 5476 5470 5465 5460 5456 5452 5449 5446 5444 5442 5441 5440 5441 5442 5443 5445 5446 5448
5599 5592 5585 5578 5571 5563 5555 5548 5540 5531 5523 5517 5514 5506 5497 5487 5478 5471 5463 5457 5450 5444 5439 5435 5432 5429 5426 5424 5422 5421 5421 5421 5421 5422 5423 5424 5426 5428
5583 5575 5567 5560 5552 5544 5536 5527 5518 5510 5501 5493 5487 5481 5473 5463 5453 5446 5441 5434 5428 5421 5417 5413 5411 5408 5406 5405 5404 5404 5403 5404 5404 5405 5406 5408 5410 5412
5567 5558 5550 5541 5532 5522 5513 5505 5495 5486 5477 5468 5461 5455 5448 5439 5429 5422 5417 5413 5408 5401 5398 5394 5392 5391 5389 5388 5388 5388 5388 5389 5390 5390 5392 5393 5395 5397
5549 5540 5531 5521 5511 5501 5491 5480 5470 5459 5450 5442 5435 5429 5423 5414 5406 5400 5395 5391 5390 5386 5381 5380 5376 5376 5374 5373 5373 5374 5375 5375 5376 5377 5379 5380 5382 5384
5529 5520 5510 5500 5488 5478 5468 5458 5448 5435 5425 5416 5410 5405 5398 5392 5385 5381 5377 5374 5372 5370 5367 5367 5364 5363 5362 5361 5361 5361 5362 5363 5364 5365 5367 5368 5370 5372
5508 5498 5487 5477 5465 5453 5444 5436 5426 5416 5405 5395 5388 5383 5378 5373 5367 5364 5361 5360 5359 5356 5354 5354 5353 5352 5351 5350 5349 5350 5351 5352 5353 5354 5356 5357 5359 5361
5489 5477 5464 5454 5444 5431 5420 5411 5404 5396 5386 5378 5371 5366 5361 5356 5352 5350 5348 5347 5347 5346 5343 5343 5343 5342 5341 5341 5340 5340 5341 5342 5343 5344 5345 5346 5348 5350
5469 5457 5444 5431 5420 5408 5397 5388 5381 5375 5369 5363 5357 5352 5348 5344 5341 5338 5337 5335 5335 5335 5334 5333 5332 5332 5333 5332 5330 5330 5331 5332 5333 5334 5334 5336 5337 5339
5445 5435 5423 5411 5399 5388 5377 5369 5362 5356 5352 5348 5344 5340 5337 5334 5331 5329 5327 5325 5325 5325 5324 5323 5323 5323 5323 5323 5322 5321 5322 5323 5324 5324 5325 5326 5328 5330
5421 5411 5401 5391 5380 5370 5361 5354 5347 5342 5338 5335 5332 5329 5326 5324 5322 5320 5318 5316 5315 5315 5315 5314 5314 5314 5314 5314 5314 5313 5313 5314 5315 5316 5317 5318 5319 5321
5399 5390 5381 5371 5362 5355 5347 5340 5334 5330 5327 5324 5321 5319 5316 5314 5312 5311 5309 5308 5307 5306 5306 5305 5305 5305 5305 5306 5306 5306 5306 5306 5307 5308 5309 5310 5312 5314
5381 5373 5364 5355 5347 5340 5334 5328 5323 5319 5316 5314 5311 5309 5307 5305 5303 5302 5301 5300 5299 5298 5298 5298 5297 5297 5298 5298 5298 5298 5299 5299 5300 5301 5302 5304 5306 5308
5363 5356 5348 5341 5334 5328 5322 5317 5313 5310 5307 5304 5302 5300 5298 5296 5295 5294 5293 5292 5291 5291 5290 5290 5290 5290 5290 5290 5290 5291 5292 5293 5294 5295 5296 5298 5300 5302
5346 5340 5333 5327 5321 5316 5312 5308 5304 5301 5298 5295 5293 5291 5290 5288 5287 5286 5285 5285 5284 5284 5283 5283 5283 5283 5283 5283 5284 5284 5285 5286 5287 5289 5290 5292 5294 5296
5333 5326 5320 5315 5310 5305 5302 5299 5296 5293 5290 5287 5285 5284 5282 5281 5280 5279 5278 5278 5277 5277 5276 5276 5276 5276 5277 5276 5277 5278 5279 5280 5281 5282 5284 5286 5288 5290
5320 5314 5309 5304 5300 5296 5293 5290 5287 5285 5282 5280 5278 5276 5275 5274 5273 5272 5272 5271 5270 5270 5270 5270 5270 5270 5270 5270 5270 5271 5272 5273 5275 5276 5278 5280 5282 5285
5309 5303 5298 5294 5290 5287 5284 5282 5279 5277 5275 5273 5271 5270 5268 5267 5267 5266 5265 5264 5264 5263 5263 5263 5263 5263 5264 5264 5264 5265 5266 5267 5269 5270 5272 5275 5277 5279
5298 5293 5289 5285 5282 5278 5276 5274 5272 5269 5267 5266 5264 5263 5262 5261 5260 5259 5258 5258 5257 5257 5256 5256 5256 5257 5257 5258 5258 5258 5259 5261 5262 5264 5266 5269 5271 5273
5287 5283 5280 5276 5273 5270 5268 5266 5264 5262 5260 5259 5257 5256 5255 5254 5253 5252 5251 5251 5250 5250 5250 5249 5249 5250 5250 5251 5252 5252 5253 5254 5256 5257 5260 5262 5264 5267